| time (UTC) | temp C | wind direction | speed KPH | gust KPH | rain 1hr cm | rain 24hr cm | rain mn cm | humidity % | barometer mb |
| 20260906083046 | 25 | 286 | 0.0 | 0.0 | 0.00 | 0.00 | 0.00 | 82 | 1012.3 |
| 20260906081513 | 25 | 286 | 0.0 | 0.0 | 0.00 | 0.00 | 0.00 | 82 | 1012.1 |
| 20260906080011 | 26 | 286 | 0.0 | 0.0 | 0.00 | 0.00 | 0.00 | 82 | 1012.1 |
| 20260906074507 | 26 | 286 | 0.0 | 0.0 | 0.00 | 0.00 | 0.00 | 81 | 1012.3 |
| 20260906073004 | 26 | 287 | 0.0 | 0.0 | 0.00 | 0.00 | 0.00 | 81 | 1012.4 |
| 20260906071502 | 26 | 287 | 0.0 | 3.2 | 0.00 | 0.00 | 0.00 | 81 | 1012.5 |
| 20260906070100 | 26 | 288 | 0.0 | 3.2 | 0.00 | 0.00 | 0.00 | 80 | 1012.5 |
| 20260906070001 | 26 | 288 | 0.0 | 3.2 | 0.00 | 0.00 | 0.00 | 80 | 1012.5 |
| 20260906064556 | 26 | 265 | 0.0 | 3.2 | 0.00 | 0.00 | 0.00 | 80 | 1012.5 |
| 20260906063055 | 27 | 228 | 0.0 | 1.6 | 0.00 | 0.00 | 0.00 | 80 | 1012.6 |
| 20260906061554 | 27 | 227 | 0.0 | 0.0 | 0.00 | 0.00 | 0.00 | 79 | 1012.7 |
| 20260906060049 | 27 | 229 | 0.0 | 0.0 | 0.00 | 0.00 | 0.00 | 78 | 1012.9 |
| 20260906054601 | 27 | 229 | 0.0 | 3.2 | 0.00 | 0.00 | 0.00 | 78 | 1013.0 |
| 20260906053044 | 28 | 282 | 0.0 | 4.8 | 0.00 | 0.00 | 0.00 | 77 | 1013.0 |
| 20260906051544 | 28 | 230 | 0.0 | 3.2 | 0.00 | 0.00 | 0.00 | 77 | 1013.1 |
| 20260906050043 | 28 | 232 | 0.0 | 3.2 | 0.00 | 0.00 | 0.00 | 76 | 1012.9 |
| 20260906044540 | 28 | 237 | 0.0 | 4.8 | 0.00 | 0.00 | 0.00 | 76 | 1013.0 |
| 20260906043040 | 28 | 231 | 0.0 | 3.2 | 0.00 | 0.00 | 0.00 | 76 | 1012.9 |
| 20260906041539 | 28 | 245 | 0.0 | 6.4 | 0.00 | 0.00 | 0.00 | 76 | 1012.9 |
| 20260906040046 | 29 | 251 | 1.6 | 8.0 | 0.00 | 0.00 | 0.00 | 76 | 1013.1 |
| 20260906034547 | 28 | 263 | 1.6 | 9.7 | 0.00 | 0.00 | 0.00 | 77 | 1013.0 |
| 20260906033036 | 28 | 227 | 1.6 | 6.4 | 0.00 | 0.00 | 0.00 | 77 | 1013.1 |
| 20260906031602 | 28 | 281 | 0.0 | 0.0 | 0.00 | 0.00 | 0.00 | 76 | 1012.9 |
| 20260906030035 | 28 | 281 | 0.0 | 0.0 | 0.00 | 0.00 | 0.00 | 76 | 1012.8 |
| 20260906024552 | 28 | 281 | 0.0 | 0.0 | 0.00 | 0.00 | 0.00 | 74 | 1012.9 |
| 20260906023038 | 29 | 281 | 0.0 | 0.0 | 0.00 | 0.00 | 0.00 | 74 | 1012.6 |
| 20260906021532 | 30 | 281 | 0.0 | 0.0 | 0.00 | 0.00 | 0.00 | 73 | 1012.5 |
| 20260906020031 | 30 | 281 | 0.0 | 0.0 | 0.00 | 0.00 | 0.00 | 72 | 1012.4 |
| 20260906014529 | 30 | 281 | 0.0 | 0.0 | 0.00 | 0.00 | 0.00 | 70 | 1012.0 |
| 20260906013030 | 31 | 281 | 0.0 | 0.0 | 0.00 | 0.00 | 0.00 | 69 | 1011.9 |
| 20260906011529 | 31 | 281 | 0.0 | 0.0 | 0.00 | 0.00 | 0.00 | 68 | 1011.7 |
| 20260906010043 | 32 | 281 | 0.0 | 0.0 | 0.00 | 0.00 | 0.00 | 65 | 1011.6 |
| 20260906004629 | 33 | 281 | 0.0 | 0.0 | 0.00 | 0.00 | 0.00 | 64 | 1011.6 |
| 20260906003057 | 33 | 281 | 0.0 | 0.0 | 0.00 | 0.00 | 0.00 | 59 | 1011.5 |
| 20260906001556 | 35 | 281 | 0.0 | 0.0 | 0.00 | 0.00 | 0.00 | 58 | 1011.6 |
| 20260906000026 | 36 | 281 | 0.0 | 0.0 | 0.00 | 0.00 | 0.00 | 57 | 1011.5 |
| 20260905234525 | 36 | 281 | 0.0 | 0.0 | 0.00 | 0.00 | 0.00 | 58 | 1011.5 |
| 20260905233057 | 36 | 281 | 0.0 | 0.0 | 0.00 | 0.00 | 0.00 | 57 | 1011.5 |
| 20260905231555 | 35 | 281 | 0.0 | 0.0 | 0.00 | 0.00 | 0.00 | 58 | 1011.5 |
| 20260905230031 | 35 | 281 | 0.0 | 1.6 | 0.00 | 0.00 | 0.00 | 59 | 1011.3 |
| 20260905224524 | 35 | 279 | 0.0 | 3.2 | 0.00 | 0.00 | 0.00 | 58 | 1011.4 |
| 20260905223021 | 35 | 279 | 0.0 | 3.2 | 0.00 | 0.00 | 0.00 | 55 | 1011.5 |
| 20260905221520 | 37 | 355 | 0.0 | 3.2 | 0.00 | 0.00 | 0.00 | 51 | 1011.6 |
| 20260905220022 | 37 | 121 | 1.6 | 3.2 | 0.00 | 0.00 | 0.00 | 50 | 1011.6 |
| 20260905214515 | 37 | 80 | 1.6 | 4.8 | 0.00 | 0.00 | 0.00 | 52 | 1011.6 |
| 20260905213047 | 37 | 71 | 3.2 | 16.1 | 0.00 | 0.00 | 0.00 | 52 | 1011.7 |
| 20260905211600 | 37 | 78 | 0.0 | 3.2 | 0.00 | 0.00 | 0.00 | 52 | 1011.7 |
| 20260905210051 | 37 | 148 | 1.6 | 11.3 | 0.00 | 0.00 | 0.00 | 51 | 1011.7 |
| 20260905204542 | 37 | 70 | 3.2 | 12.9 | 0.00 | 0.00 | 0.00 | 52 | 1011.8 |
| 20260905203035 | 37 | 116 | 3.2 | 11.3 | 0.00 | 0.00 | 0.00 | 52 | 1012.4 |
| 20260905201541 | 37 | 102 | 1.6 | 8.0 | 0.00 | 0.00 | 0.00 | 52 | 1012.3 |
| 20260905200032 | 37 | 67 | 3.2 | 16.1 | 0.00 | 0.00 | 0.00 | 52 | 1012.5 |
| 20260905194527 | 37 | 134 | 0.0 | 9.7 | 0.00 | 0.00 | 0.00 | 55 | 1012.7 |
| 20260905193023 | 36 | 151 | 0.0 | 3.2 | 0.00 | 0.00 | 0.00 | 55 | 1013.1 |
| 20260905191521 | 36 | 138 | 3.2 | 11.3 | 0.00 | 0.00 | 0.00 | 54 | 1013.3 |
| 20260905190017 | 35 | 90 | 1.6 | 9.7 | 0.00 | 0.00 | 0.00 | 57 | 1013.5 |
| 20260905184517 | 36 | 106 | 1.6 | 9.7 | 0.00 | 0.00 | 0.00 | 55 | 1013.5 |
| 20260905183027 | 36 | 119 | 3.2 | 14.5 | 0.00 | 0.00 | 0.00 | 54 | 1013.5 |
| 20260905181513 | 36 | 344 | 1.6 | 12.9 | 0.00 | 0.00 | 0.00 | 58 | 1013.7 |
| 20260905180005 | 36 | 342 | 0.0 | 4.8 | 0.00 | 0.00 | 0.00 | 60 | 1013.9 |
| 20260905174504 | 36 | 72 | 3.2 | 8.0 | 0.00 | 0.00 | 0.00 | 59 | 1014.1 |
| 20260905173002 | 36 | 103 | 1.6 | 4.8 | 0.00 | 0.00 | 0.00 | 61 | 1014.2 |
| 20260905171558 | 35 | 290 | 0.0 | 4.8 | 0.00 | 0.00 | 0.00 | 63 | 1014.4 |
| 20260905170054 | 35 | 109 | 1.6 | 4.8 | 0.00 | 0.00 | 0.00 | 64 | 1014.5 |
| 20260905164549 | 35 | 21 | 1.6 | 4.8 | 0.00 | 0.00 | 0.00 | 65 | 1014.7 |
| 20260905163045 | 35 | 170 | 0.0 | 3.2 | 0.00 | 0.00 | 0.00 | 65 | 1014.9 |
| 20260905161540 | 34 | 142 | 0.0 | 3.2 | 0.00 | 0.00 | 0.00 | 69 | 1015.0 |
| 20260905160035 | 33 | 69 | 0.0 | 6.4 | 0.00 | 0.00 | 0.00 | 70 | 1015.0 |
| 20260905154529 | 33 | 333 | 0.0 | 3.2 | 0.00 | 0.00 | 0.00 | 74 | 1015.2 |
| 20260905153025 | 32 | 117 | 0.0 | 3.2 | 0.00 | 0.00 | 0.00 | 74 | 1015.3 |
| 20260905151521 | 32 | 90 | 0.0 | 3.2 | 0.00 | 0.00 | 0.00 | 76 | 1015.3 |
| 20260905150014 | 31 | 209 | 0.0 | 3.2 | 0.00 | 0.00 | 0.00 | 79 | 1015.3 |
| 20260905144511 | 30 | 262 | 0.0 | 4.8 | 0.00 | 0.00 | 0.00 | 80 | 1015.4 |
| 20260905143006 | 29 | 268 | 0.0 | 4.8 | 0.00 | 0.00 | 0.00 | 82 | 1015.6 |
| 20260905141515 | 28 | 250 | 0.0 | 6.4 | 0.00 | 0.00 | 0.00 | 83 | 1015.4 |
| 20260905140058 | 28 | 220 | 0.0 | 1.6 | 0.00 | 0.00 | 0.00 | 84 | 1015.4 |
| 20260905134600 | 27 | 219 | 0.0 | 3.2 | 0.00 | 0.00 | 0.00 | 85 | 1015.3 |
| 20260905133056 | 26 | 244 | 0.0 | 1.6 | 0.00 | 0.00 | 0.00 | 86 | 1015.3 |
| 20260905131549 | 26 | 266 | 0.0 | 3.2 | 0.00 | 0.00 | 0.00 | 86 | 1015.3 |
| 20260905130014 | 25 | 315 | 0.0 | 0.0 | 0.00 | 0.00 | 0.00 | 87 | 1015.4 |
| 20260905124514 | 25 | 261 | 0.0 | 0.0 | 0.00 | 0.00 | 0.00 | 88 | 1015.3 |
| 20260905123040 | 23 | 261 | 0.0 | 0.0 | 0.00 | 0.00 | 0.00 | 88 | 1015.2 |
| 20260905121539 | 23 | 261 | 0.0 | 0.0 | 0.00 | 0.00 | 0.00 | 88 | 1015.3 |
| 20260905120035 | 23 | 261 | 0.0 | 0.0 | 0.00 | 0.00 | 0.00 | 87 | 1015.1 |
| 20260905114534 | 23 | 261 | 0.0 | 0.0 | 0.00 | 0.00 | 0.00 | 87 | 1014.9 |
| 20260905113032 | 23 | 261 | 0.0 | 0.0 | 0.00 | 0.00 | 0.00 | 87 | 1014.8 |
| 20260905111535 | 23 | 261 | 0.0 | 0.0 | 0.00 | 0.00 | 0.00 | 86 | 1014.7 |
| 20260905110032 | 23 | 261 | 0.0 | 0.0 | 0.00 | 0.00 | 0.00 | 86 | 1014.8 |
| 20260905104600 | 23 | 261 | 0.0 | 0.0 | 0.00 | 0.00 | 0.00 | 86 | 1014.7 |
| 20260905103059 | 23 | 261 | 0.0 | 0.0 | 0.00 | 0.00 | 0.00 | 86 | 1014.6 |
| 20260905101605 | 23 | 261 | 0.0 | 0.0 | 0.00 | 0.00 | 0.00 | 86 | 1014.5 |
| 20260905100052 | 23 | 261 | 0.0 | 0.0 | 0.00 | 0.00 | 0.00 | 86 | 1014.4 |
| 20260905094552 | 24 | 261 | 0.0 | 0.0 | 0.00 | 0.00 | 0.00 | 85 | 1014.4 |
| 20260905093051 | 24 | 261 | 0.0 | 0.0 | 0.00 | 0.00 | 0.00 | 86 | 1014.4 |
| 20260905091519 | 24 | 261 | 0.0 | 0.0 | 0.00 | 0.00 | 0.00 | 85 | 1014.4 |
| 20260905090019 | 24 | 261 | 0.0 | 0.0 | 0.00 | 0.00 | 0.00 | 85 | 1014.2 |
| 20260905084516 | 24 | 261 | 0.0 | 0.0 | 0.00 | 0.00 | 0.00 | 84 | 1014.2 |